Regional Weather Roundup
Issued by NWS

Home | Current Version | Previous Version | Text Only | Print | Product List | Glossary Off
Versions: 1 2 3 4 5 6 7 8 9 10 11 12 13 14 15 16 17 18 19 20 21 22 23 24 25 26 27 28 29 30 31 32 33 34 35 36 37 38 39 40 41 42 43 44 45 46 47 48 49 50

000
ASUS45 KTFX 280504
RWRMT
MONTANA HOURLY WEATHER ROUNDUP
NATIONAL WEATHER SERVICE GREAT FALLS MT
1104 PM MDT WED AUG 27 2014

NOTE: "FAIR" INDICATES FEW OR NO CLOUDS BELOW 12000 FEET WITH NO
SIGNIFICANT WEATHER AND/OR OBSTRUCTIONS TO VISIBILITY.

* THESE STATIONS ARE NOT UNDER NWS QUALITY CONTROL. THEY DO NOT
   REPORT WEATHER SUCH AS PRECIPITATION OR FOG.

MTZ001>007-043-280600-
WEST OF THE DIVIDE
CITY           SKY/WX    TMP DP  RH WIND       PRES   REMARKS
KALISPELL      CLEAR     57  52  83 CALM      29.99S
MISSOULA       CLEAR     64  48  56 CALM      30.05S
BUTTE          CLEAR     54  46  74 SE8       30.20F
MULLAN PASS    CLEAR     63  37  38 W7        30.20F
* LINCOLN      N/A       55  49  80 N/A        N/A
* LOOKOUT PASS N/A       62  44  52 N/A        N/A
* POLSON       N/A       65  44  47 N/A        N/A
* RONAN APT    CLEAR     66  48  52 E5         N/A
* SEELEY LAKE  N/A       56  47  72 E1         N/A
* THOMP F APT  CLEAR     56  40  55 NE4G9      N/A
$$

MTZ008-052>055-280600-
SOUTHWEST MONTANA
CITY           SKY/WX    TMP DP  RH WIND       PRES   REMARKS
BOZEMAN        CLEAR     55  46  72 SE8       30.13R
DILLON         CLEAR     61  46  58 S8        30.16S
W YELLOWSTONE  CLEAR     57  41  55 CALM      30.27S
* THREE FORKS  CLEAR     59  36  42 N/A        N/A
* BOULDER HILL N/A       60  35  39 S1         N/A
* MONIDA PASS  N/A       55  41  59 W1         N/A
* RAYNOLDS PAS N/A       52  37  57 S6         N/A
* WHITEHALL    N/A       60  46  60 NW3        N/A
* WISE RIVER   N/A       57  43  60 SE5        N/A
$$

MTZ009>010-012-014-046-048-049-054-280600-
EAST SLOPES AND CENTRAL MONTANA
CITY           SKY/WX    TMP DP  RH WIND       PRES   REMARKS
CUT BANK       CLEAR     66  45  47 SW7       30.00F
GREAT FALLS    CLEAR     63  46  54 S10       30.01F
HELENA         CLEAR     64  46  52 N3        30.06F
MALMSTROM AFB  CLEAR     68  48  49 W8        30.03R
* CONRAD       CLEAR     61  54  78 SW6        N/A
* EAST GLACIER N/A       55  45  69 E2G9       N/A
* MONARCH      N/A       56  42  60 SE2        N/A
* PENDROY      N/A       64  39  40 W2         N/A
* ROGERS PASS  N/A       59  43  56 W4         N/A
* SAINT MARY   N/A       57  47  69 SE3        N/A
* SWEET GRASS  N/A       70  45  41 SW18       N/A
$$

MTZ011-013-016-021-035-040-045-047-050-051-280600-
NORTH CENTRAL MONTANA
CITY           SKY/WX    TMP DP  RH WIND       PRES   REMARKS
HAVRE          FAIR      63  54  73 SW5       29.92S
LEWISTOWN      CLEAR     61  46  58 SE6       30.06F
* DENTON       N/A       62  46  56 S9         N/A
* GEYSER       N/A       57  44  62 SW4        N/A
* JUDITH GAP   N/A       61  45  56 SW1        N/A
* LOMA         N/A       69  54  59 S2         N/A
$$

MTZ017>020-022>027-061-062-280600-
NORTHEAST MONTANA
CITY           SKY/WX    TMP DP  RH WIND       PRES   REMARKS
GLASGOW        CLEAR     64  52  65 SE6       29.91F
GLENDIVE       FAIR      66  61  84 S9        29.99S
JORDAN         CLEAR     61  57  87 CALM      29.96S
SIDNEY         CLEAR     63  57  81 SW6       29.96S
WOLF POINT     CLEAR     63  54  73 CALM      29.92S
* BEAVER HILL  N/A       67  59  76 SE19G24    N/A
* CIRCLE       N/A       64  55  73 N/A        N/A
* LINDSAY DVD  N/A       62  51  67 NE3        N/A
* NAVAJO       N/A       65  49  56 W9         N/A
$$

MTZ028>042-056>058-280600-
SOUTHCENTRAL AND SOUTHEAST MONTANA
CITY           SKY/WX    TMP DP  RH WIND       PRES   REMARKS
BAKER          PTCLDY    64  61  90 S14       30.04S
BILLINGS       CLEAR     73  48  41 W15       30.03S
LIVINGSTON     CLEAR     55  45  69 SW5       30.12S
MILES CITY     CLEAR     66  57  73 S9        29.97S
* LAUREL APT   CLEAR     68  46  45 SW6        N/A
* ROUNDUP APT  CLEAR     68  48  49 N/A        N/A
* ALZADA       N/A       62  59  90 E2         N/A
* HYSHAM       N/A       73  42  33 W2         N/A
* LAME DEER    N/A       65  52  63 S8         N/A
* REED POINT   N/A       61  48  62 S2         N/A
* ROSCOE HILL  N/A       63  34  34 S9         N/A
$$

REGIONAL REPORTS...DAKOTAS
CITY           SKY/WX    TMP DP  RH WIND       PRES   REMARKS
WILLISTON      MOCLDY    68  55  63 SW5       29.94S
DICKINSON      CLEAR     61  59  93 S10       30.00F
BEACH          N/A       61  61 100 S12       30.02S
CROSBY         FAIR      64  57  78 S12       29.92F
TIOGA          PTCLDY    63  63 100 SE3       29.99S
WATFORD CITY   CLEAR     66  55  68 S7        29.95S
BISMARCK       CLOUDY    64  61  90 E3        30.03F
GRAND FORKS    CLEAR     61  57  87 S7        30.05F
FARGO          CLOUDY    66  59  78 SE9       30.06F
BUFFALO SD     CLOUDY    61  61 100 S6        29.99F
RAPID CITY     CLOUDY    64  63  97 NW7       30.04F
$$

REGIONAL REPORTS...WYOMING/IDAHO/WASHINGTON
CITY           SKY/WX    TMP DP  RH WIND       PRES   REMARKS
GILLETTE       CLOUDY    61  54  78 S3        30.10F
SHERIDAN       CLOUDY    61  54  78 CALM      30.06F
CODY           CLEAR     61  52  72 SW6       30.15S
YELLOWSTONE LA CLEAR     48  41  77 CALM      30.37S
SALMON         CLEAR     59  48  67 CALM      30.11R
MULLAN PASS    CLEAR     63  37  38 W7        30.20S
SAND POINT     PTCLDY    59  54  84 W3        29.94S
SPOKANE        FAIR      77  46  33 SW8       29.95S

$$



USA.gov is the U.S. government's official web portal to all federal, state and local government web resources and services.